Year,Month,Day,Hour,Minute,Value (Times are PST for temperature in C)
2014,11,28,00,00,12.40
2014,11,28,00,01,12.40
2014,11,28,00,02,12.40
2014,11,28,00,03,12.40
2014,11,28,00,04,12.40
2014,11,28,00,05,12.40
2014,11,28,00,06,12.30
2014,11,28,00,07,12.30
2014,11,28,00,08,12.30
2014,11,28,00,09,12.30
2014,11,28,00,10,12.30
2014,11,28,00,11,12.30
2014,11,28,00,12,12.30
2014,11,28,00,13,12.30
2014,11,28,00,14,12.20
2014,11,28,00,15,12.20
2014,11,28,00,16,12.20
2014,11,28,00,17,12.20
2014,11,28,00,18,12.20
2014,11,28,00,19,12.10
2014,11,28,00,20,12.10
2014,11,28,00,21,12.10
2014,11,28,00,22,12.10
2014,11,28,00,23,12.10
2014,11,28,00,24,12.10
2014,11,28,00,25,12.20
2014,11,28,00,26,12.20
2014,11,28,00,27,12.20
2014,11,28,00,28,12.20
2014,11,28,00,29,12.10
2014,11,28,00,30,12.10
2014,11,28,00,31,12.10
2014,11,28,00,32,12.10
2014,11,28,00,33,12.10
2014,11,28,00,34,12.20
2014,11,28,00,35,12.20
2014,11,28,00,36,12.20
2014,11,28,00,37,12.20
2014,11,28,00,38,12.20
2014,11,28,00,39,12.20
2014,11,28,00,40,12.20
2014,11,28,00,41,12.20
2014,11,28,00,42,12.20
2014,11,28,00,43,12.20
2014,11,28,00,44,12.20
2014,11,28,00,45,12.20
2014,11,28,00,46,12.20
2014,11,28,00,47,12.30
2014,11,28,00,48,12.30
2014,11,28,00,49,12.30
2014,11,28,00,50,12.30
2014,11,28,00,51,12.30
2014,11,28,00,52,12.30
2014,11,28,00,53,12.40
2014,11,28,00,54,12.40
2014,11,28,00,55,12.40
2014,11,28,00,56,12.40
2014,11,28,00,57,12.40
2014,11,28,00,58,12.40
2014,11,28,00,59,12.40
2014,11,28,01,00,12.40
2014,11,28,01,01,12.40
2014,11,28,01,02,12.40
2014,11,28,01,03,12.40
2014,11,28,01,04,12.50
2014,11,28,01,05,12.50
2014,11,28,01,06,12.50
2014,11,28,01,07,12.50
2014,11,28,01,08,12.50
2014,11,28,01,09,12.60
2014,11,28,01,10,12.50
2014,11,28,01,11,12.50
2014,11,28,01,12,12.40
2014,11,28,01,13,12.40
2014,11,28,01,14,12.40
2014,11,28,01,15,12.30
2014,11,28,01,16,12.30
2014,11,28,01,17,12.30
2014,11,28,01,18,12.20
2014,11,28,01,19,12.20
2014,11,28,01,20,12.20
2014,11,28,01,21,12.20
2014,11,28,01,22,12.20
2014,11,28,01,23,12.10
2014,11,28,01,24,12.10
2014,11,28,01,25,12.10
2014,11,28,01,26,12.10
2014,11,28,01,27,12.10
2014,11,28,01,28,12.10
2014,11,28,01,29,12.20
2014,11,28,01,30,12.20
2014,11,28,01,31,12.20
2014,11,28,01,32,12.20
2014,11,28,01,33,12.20
2014,11,28,01,34,12.20
2014,11,28,01,35,12.20
2014,11,28,01,36,12.30
2014,11,28,01,37,12.30
2014,11,28,01,38,12.30
2014,11,28,01,39,12.30
2014,11,28,01,40,12.30
2014,11,28,01,41,12.30
2014,11,28,01,42,12.30
2014,11,28,01,43,12.30
2014,11,28,01,44,12.30
2014,11,28,01,45,12.30
2014,11,28,01,46,12.30
2014,11,28,01,47,12.30
2014,11,28,01,48,12.30
2014,11,28,01,49,12.30
2014,11,28,01,50,12.30
2014,11,28,01,51,12.30
2014,11,28,01,52,12.30
2014,11,28,01,53,12.30
2014,11,28,01,54,12.30
2014,11,28,01,55,12.30
2014,11,28,01,56,12.20
2014,11,28,01,57,12.20
2014,11,28,01,58,12.20
2014,11,28,01,59,12.20
2014,11,28,02,00,12.20
2014,11,28,02,01,12.20
2014,11,28,02,02,12.20
2014,11,28,02,03,12.20
2014,11,28,02,04,12.10
2014,11,28,02,05,12.10
2014,11,28,02,06,12.10
2014,11,28,02,07,12.00
2014,11,28,02,08,12.00
2014,11,28,02,09,12.00
2014,11,28,02,10,11.90
2014,11,28,02,11,11.90
2014,11,28,02,12,11.90
2014,11,28,02,13,11.90
2014,11,28,02,14,11.90
2014,11,28,02,15,12.00
2014,11,28,02,16,12.00
2014,11,28,02,17,12.00
2014,11,28,02,18,12.00
2014,11,28,02,19,12.10
2014,11,28,02,20,12.20
2014,11,28,02,21,12.20
2014,11,28,02,22,12.20
2014,11,28,02,23,12.20
2014,11,28,02,24,12.30
2014,11,28,02,25,12.30
2014,11,28,02,26,12.30
2014,11,28,02,27,12.40
2014,11,28,02,28,12.40
2014,11,28,02,29,12.40
2014,11,28,02,30,12.40
2014,11,28,02,31,12.40
2014,11,28,02,32,12.40
2014,11,28,02,33,12.40
2014,11,28,02,34,12.40
2014,11,28,02,35,12.40
2014,11,28,02,36,12.40
2014,11,28,02,37,12.30
2014,11,28,02,38,12.30
2014,11,28,02,39,12.30
2014,11,28,02,40,12.30
2014,11,28,02,41,12.20
2014,11,28,02,42,12.20
2014,11,28,02,43,12.20
2014,11,28,02,44,12.20
2014,11,28,02,45,12.20
2014,11,28,02,46,12.10
2014,11,28,02,47,12.10
2014,11,28,02,48,12.10
2014,11,28,02,49,12.10
2014,11,28,02,50,12.10
2014,11,28,02,51,12.00
2014,11,28,02,52,12.00
2014,11,28,02,53,12.00
2014,11,28,02,54,11.90
2014,11,28,02,55,11.90
2014,11,28,02,56,11.90
2014,11,28,02,57,11.90
2014,11,28,02,58,11.90
2014,11,28,02,59,11.90
2014,11,28,03,00,11.90
2014,11,28,03,01,11.90
2014,11,28,03,02,11.90
2014,11,28,03,03,11.80
2014,11,28,03,04,11.80
2014,11,28,03,05,11.80
2014,11,28,03,06,11.80
2014,11,28,03,07,11.80
2014,11,28,03,08,11.80
2014,11,28,03,09,11.70
2014,11,28,03,10,11.70
2014,11,28,03,11,11.70
2014,11,28,03,12,11.60
2014,11,28,03,13,11.60
2014,11,28,03,14,11.50
2014,11,28,03,15,11.50
2014,11,28,03,16,11.50
2014,11,28,03,17,11.40
2014,11,28,03,18,11.40
2014,11,28,03,19,11.40
2014,11,28,03,20,11.40
2014,11,28,03,21,11.30
2014,11,28,03,22,11.30
2014,11,28,03,23,11.30
2014,11,28,03,24,11.30
2014,11,28,03,25,11.20
2014,11,28,03,26,11.20
2014,11,28,03,27,11.20
2014,11,28,03,28,11.20
2014,11,28,03,29,11.10
2014,11,28,03,30,11.10
2014,11,28,03,31,11.10
2014,11,28,03,32,11.10
2014,11,28,03,33,11.10
2014,11,28,03,34,11.10
2014,11,28,03,35,11.10
2014,11,28,03,36,11.00
2014,11,28,03,37,11.00
2014,11,28,03,38,11.00
2014,11,28,03,39,10.90
2014,11,28,03,40,10.90
2014,11,28,03,41,10.90
2014,11,28,03,42,10.90
2014,11,28,03,43,10.90
2014,11,28,03,44,10.80
2014,11,28,03,45,10.80
2014,11,28,03,46,10.80
2014,11,28,03,47,10.70
2014,11,28,03,48,10.70
2014,11,28,03,49,10.70
2014,11,28,03,50,10.70
2014,11,28,03,51,10.70
2014,11,28,03,52,10.60
2014,11,28,03,53,10.60
2014,11,28,03,54,10.60
2014,11,28,03,55,10.60
2014,11,28,03,56,10.60
2014,11,28,03,57,10.50
2014,11,28,03,58,10.50
2014,11,28,03,59,10.50
2014,11,28,04,00,10.50
2014,11,28,04,01,10.40
2014,11,28,04,02,10.40
2014,11,28,04,03,10.40
2014,11,28,04,04,10.40
2014,11,28,04,05,10.50
2014,11,28,04,06,10.50
2014,11,28,04,07,10.50
2014,11,28,04,08,10.50
2014,11,28,04,09,10.50
2014,11,28,04,10,10.50
2014,11,28,04,11,10.50
2014,11,28,04,12,10.50
2014,11,28,04,13,10.50
2014,11,28,04,14,10.50
2014,11,28,04,15,10.50
2014,11,28,04,16,10.50
2014,11,28,04,17,10.60
2014,11,28,04,18,10.60
2014,11,28,04,19,10.60
2014,11,28,04,20,10.60
2014,11,28,04,21,10.60
2014,11,28,04,22,10.60
2014,11,28,04,23,10.60
2014,11,28,04,24,10.60
2014,11,28,04,25,10.60
2014,11,28,04,26,10.60
2014,11,28,04,27,10.60
2014,11,28,04,28,10.60
2014,11,28,04,29,10.60
2014,11,28,04,30,10.60
2014,11,28,04,31,10.60
2014,11,28,04,32,10.70
2014,11,28,04,33,10.70
2014,11,28,04,34,10.70
2014,11,28,04,35,10.60
2014,11,28,04,36,10.60
2014,11,28,04,37,10.70
2014,11,28,04,38,10.70
2014,11,28,04,39,10.70
2014,11,28,04,40,10.70
2014,11,28,04,41,10.70
2014,11,28,04,42,10.70
2014,11,28,04,43,10.70
2014,11,28,04,44,10.70
2014,11,28,04,45,10.70
2014,11,28,04,46,10.70
2014,11,28,04,47,10.70
2014,11,28,04,48,10.70
2014,11,28,04,49,10.70
2014,11,28,04,50,10.70
2014,11,28,04,51,10.70
2014,11,28,04,52,10.70
2014,11,28,04,53,10.60
2014,11,28,04,54,10.60
2014,11,28,04,55,10.60
2014,11,28,04,56,10.60
2014,11,28,04,57,10.60
2014,11,28,04,58,10.60
2014,11,28,04,59,10.60
2014,11,28,05,00,10.60
2014,11,28,05,01,10.60
2014,11,28,05,02,10.50
2014,11,28,05,03,10.50
2014,11,28,05,04,10.50
2014,11,28,05,05,10.40
2014,11,28,05,06,10.40
2014,11,28,05,07,10.40
2014,11,28,05,08,10.30
2014,11,28,05,09,10.30
2014,11,28,05,10,10.30
2014,11,28,05,11,10.20
2014,11,28,05,12,10.20
2014,11,28,05,13,10.20
2014,11,28,05,14,10.20
2014,11,28,05,15,10.10
2014,11,28,05,16,10.10
2014,11,28,05,17,10.00
2014,11,28,05,18,10.00
2014,11,28,05,19,9.90
2014,11,28,05,20,9.90
2014,11,28,05,21,9.80
2014,11,28,05,22,9.80
2014,11,28,05,23,9.80
2014,11,28,05,24,9.70
2014,11,28,05,25,9.70
2014,11,28,05,26,9.60
2014,11,28,05,27,9.40
2014,11,28,05,28,9.30
2014,11,28,05,29,9.20
2014,11,28,05,30,9.00
2014,11,28,05,31,8.90
2014,11,28,05,32,8.80
2014,11,28,05,33,8.70
2014,11,28,05,34,8.70
2014,11,28,05,35,8.60
2014,11,28,05,36,8.50
2014,11,28,05,37,8.50
2014,11,28,05,38,8.40
2014,11,28,05,39,8.40
2014,11,28,05,40,8.30
2014,11,28,05,41,8.30
2014,11,28,05,42,8.30
2014,11,28,05,43,8.20
2014,11,28,05,44,8.20
2014,11,28,05,45,8.20
2014,11,28,05,46,8.10
2014,11,28,05,47,8.10
2014,11,28,05,48,8.10
2014,11,28,05,49,8.00
2014,11,28,05,50,8.00
2014,11,28,05,51,8.00
2014,11,28,05,52,7.90
2014,11,28,05,53,7.90
2014,11,28,05,54,7.90
2014,11,28,05,55,7.90
2014,11,28,05,56,7.90
2014,11,28,05,57,7.90
2014,11,28,05,58,7.90
2014,11,28,05,59,7.90
2014,11,28,06,00,7.90
2014,11,28,06,01,7.90
2014,11,28,06,02,7.80
2014,11,28,06,03,7.80
2014,11,28,06,04,7.80
2014,11,28,06,05,7.80
2014,11,28,06,06,7.80
2014,11,28,06,07,7.80
2014,11,28,06,08,7.80
2014,11,28,06,09,7.80
2014,11,28,06,10,7.80
2014,11,28,06,11,7.80
2014,11,28,06,12,7.80
2014,11,28,06,13,7.80
2014,11,28,06,14,7.70
2014,11,28,06,15,7.70
2014,11,28,06,16,7.70
2014,11,28,06,17,7.70
2014,11,28,06,18,7.70
2014,11,28,06,19,7.70
2014,11,28,06,20,7.70
2014,11,28,06,21,7.70
2014,11,28,06,22,7.70
2014,11,28,06,23,7.70
2014,11,28,06,24,7.70
2014,11,28,06,25,7.70
2014,11,28,06,26,7.70
2014,11,28,06,27,7.70
2014,11,28,06,28,7.70
2014,11,28,06,29,7.70
2014,11,28,06,30,7.70
2014,11,28,06,31,7.70
2014,11,28,06,32,7.70
2014,11,28,06,33,7.70
2014,11,28,06,34,7.70
2014,11,28,06,35,7.70
2014,11,28,06,36,7.70
2014,11,28,06,37,7.70
2014,11,28,06,38,7.70
2014,11,28,06,39,7.70
2014,11,28,06,40,7.70
2014,11,28,06,41,7.70
2014,11,28,06,42,7.70
2014,11,28,06,43,7.70
2014,11,28,06,44,7.70
2014,11,28,06,45,7.60
2014,11,28,06,46,7.60
2014,11,28,06,47,7.60
2014,11,28,06,48,7.60
2014,11,28,06,49,7.60
2014,11,28,06,50,7.60
2014,11,28,06,51,7.60
2014,11,28,06,52,7.60
2014,11,28,06,53,7.60
2014,11,28,06,54,7.60
2014,11,28,06,55,7.50
2014,11,28,06,56,7.50
2014,11,28,06,57,7.50
2014,11,28,06,58,7.50
2014,11,28,06,59,7.50
2014,11,28,07,00,7.50
2014,11,28,07,01,7.50
2014,11,28,07,02,7.50
2014,11,28,07,03,7.50
2014,11,28,07,04,7.50
2014,11,28,07,05,7.50
2014,11,28,07,06,7.50
2014,11,28,07,07,7.50
2014,11,28,07,08,7.50
2014,11,28,07,09,7.50
2014,11,28,07,10,7.50
2014,11,28,07,11,7.50
2014,11,28,07,12,7.50
2014,11,28,07,13,7.50
2014,11,28,07,14,7.50
2014,11,28,07,15,7.50
2014,11,28,07,16,7.50
2014,11,28,07,17,7.50
2014,11,28,07,18,7.50
2014,11,28,07,19,7.50
2014,11,28,07,20,7.50
2014,11,28,07,21,7.50
2014,11,28,07,22,7.50
2014,11,28,07,23,7.50
2014,11,28,07,24,7.50
2014,11,28,07,25,7.50
2014,11,28,07,26,7.40
2014,11,28,07,27,7.40
2014,11,28,07,28,7.40
2014,11,28,07,29,7.40
2014,11,28,07,30,7.40
2014,11,28,07,31,7.30
2014,11,28,07,32,7.30
2014,11,28,07,33,7.30
2014,11,28,07,34,7.30
2014,11,28,07,35,7.30
2014,11,28,07,36,7.30
2014,11,28,07,37,7.30
2014,11,28,07,38,7.30
2014,11,28,07,39,7.20
2014,11,28,07,40,7.20
2014,11,28,07,41,7.20
2014,11,28,07,42,7.20
2014,11,28,07,43,7.20
2014,11,28,07,44,7.20
2014,11,28,07,45,7.20
2014,11,28,07,46,7.20
2014,11,28,07,47,7.10
2014,11,28,07,48,7.10
2014,11,28,07,49,7.10
2014,11,28,07,50,7.10
2014,11,28,07,51,7.10
2014,11,28,07,52,7.10
2014,11,28,07,53,7.10
2014,11,28,07,54,7.10
2014,11,28,07,55,7.10
2014,11,28,07,56,7.10
2014,11,28,07,57,7.10
2014,11,28,07,58,7.10
2014,11,28,07,59,7.10
2014,11,28,08,00,7.10
2014,11,28,08,01,7.10
2014,11,28,08,02,7.10
2014,11,28,08,03,7.10
2014,11,28,08,04,7.10
2014,11,28,08,05,7.10
2014,11,28,08,06,7.10
2014,11,28,08,07,7.10
2014,11,28,08,08,7.10
2014,11,28,08,09,7.00
2014,11,28,08,10,7.00
2014,11,28,08,11,7.00
2014,11,28,08,12,6.90
2014,11,28,08,13,6.90
2014,11,28,08,14,6.90
2014,11,28,08,15,6.90
2014,11,28,08,16,6.90
2014,11,28,08,17,6.80
2014,11,28,08,18,6.80
2014,11,28,08,19,6.80
2014,11,28,08,20,6.80
2014,11,28,08,21,6.80
2014,11,28,08,22,6.80
2014,11,28,08,23,6.80
2014,11,28,08,24,6.80
2014,11,28,08,25,6.80
2014,11,28,08,26,6.80
2014,11,28,08,27,6.80
2014,11,28,08,28,6.80
2014,11,28,08,29,6.80
2014,11,28,08,30,6.80
2014,11,28,08,31,6.90
2014,11,28,08,32,6.90
2014,11,28,08,33,6.90
2014,11,28,08,34,6.90
2014,11,28,08,35,6.90
2014,11,28,08,36,6.90
2014,11,28,08,37,6.90
2014,11,28,08,38,6.90
2014,11,28,08,39,6.90
2014,11,28,08,40,6.90
2014,11,28,08,41,6.90
2014,11,28,08,42,6.80
2014,11,28,08,43,6.80
2014,11,28,08,44,6.80
2014,11,28,08,45,6.80
2014,11,28,08,46,6.80
2014,11,28,08,47,6.80
2014,11,28,08,48,6.80
2014,11,28,08,49,6.80
2014,11,28,08,50,6.80
2014,11,28,08,51,6.80
2014,11,28,08,52,6.80
2014,11,28,08,53,6.80
2014,11,28,08,54,6.80
2014,11,28,08,55,6.80
2014,11,28,08,56,6.70
2014,11,28,08,57,6.70
2014,11,28,08,58,6.70
2014,11,28,08,59,6.70
2014,11,28,09,00,6.70
2014,11,28,09,01,6.70
2014,11,28,09,02,6.70
2014,11,28,09,03,6.70
2014,11,28,09,04,6.70
2014,11,28,09,05,6.60
2014,11,28,09,06,6.60
2014,11,28,09,07,6.60
2014,11,28,09,08,6.60
2014,11,28,09,09,6.60
2014,11,28,09,10,6.60
2014,11,28,09,11,6.60
2014,11,28,09,12,6.60
2014,11,28,09,13,6.60
2014,11,28,09,14,6.60
2014,11,28,09,15,6.60
2014,11,28,09,16,6.60
2014,11,28,09,17,6.60
2014,11,28,09,18,6.60
2014,11,28,09,19,6.60
2014,11,28,09,20,6.60
2014,11,28,09,21,6.60
2014,11,28,09,22,6.60
2014,11,28,09,23,6.60
2014,11,28,09,24,6.60
2014,11,28,09,25,6.60
2014,11,28,09,26,6.50
2014,11,28,09,27,6.50
2014,11,28,09,28,6.50
2014,11,28,09,29,6.50
2014,11,28,09,30,6.50
2014,11,28,09,31,6.50
2014,11,28,09,32,6.50
2014,11,28,09,33,6.60
2014,11,28,09,34,6.50
2014,11,28,09,35,6.60
2014,11,28,09,36,6.60
2014,11,28,09,37,6.60
2014,11,28,09,38,6.60
2014,11,28,09,39,6.60
2014,11,28,09,40,6.60
2014,11,28,09,41,6.60
2014,11,28,09,42,6.60
2014,11,28,09,43,6.60
2014,11,28,09,44,6.60
2014,11,28,09,45,6.60
2014,11,28,09,46,6.60
2014,11,28,09,47,6.60
2014,11,28,09,48,6.60
2014,11,28,09,49,6.60
2014,11,28,09,50,6.60
2014,11,28,09,51,6.60
2014,11,28,09,52,6.60
2014,11,28,09,53,6.60
2014,11,28,09,54,6.60
2014,11,28,09,55,6.60
2014,11,28,09,56,6.60
2014,11,28,09,57,6.60
2014,11,28,09,58,6.50
2014,11,28,09,59,6.50
2014,11,28,10,00,6.50
2014,11,28,10,01,6.50
2014,11,28,10,02,6.50
2014,11,28,10,03,6.50
2014,11,28,10,04,6.40
2014,11,28,10,05,6.40
2014,11,28,10,06,6.40
2014,11,28,10,07,6.40
2014,11,28,10,08,6.40
2014,11,28,10,09,6.40
2014,11,28,10,10,6.40
2014,11,28,10,11,6.40
2014,11,28,10,12,6.40
2014,11,28,10,13,6.40
2014,11,28,10,14,6.40
2014,11,28,10,15,6.40
2014,11,28,10,16,6.40
2014,11,28,10,17,6.40
2014,11,28,10,18,6.40
2014,11,28,10,19,6.40
2014,11,28,10,20,6.50
2014,11,28,10,21,6.40
2014,11,28,10,22,6.50
2014,11,28,10,23,6.50
2014,11,28,10,24,6.50
2014,11,28,10,25,6.50
2014,11,28,10,26,6.50
2014,11,28,10,27,6.50
2014,11,28,10,28,6.60
2014,11,28,10,29,6.60
2014,11,28,10,30,6.60
2014,11,28,10,31,6.60
2014,11,28,10,32,6.60
2014,11,28,10,33,6.60
2014,11,28,10,34,6.60
2014,11,28,10,35,6.60
2014,11,28,10,36,6.60
2014,11,28,10,37,6.70
2014,11,28,10,38,6.70
2014,11,28,10,39,6.70
2014,11,28,10,40,6.70
2014,11,28,10,41,6.70
2014,11,28,10,42,6.70
2014,11,28,10,43,6.70
2014,11,28,10,44,6.70
2014,11,28,10,45,6.70
2014,11,28,10,46,6.70
2014,11,28,10,47,6.70
2014,11,28,10,48,6.70
2014,11,28,10,49,6.70
2014,11,28,10,50,6.70
2014,11,28,10,51,6.80
2014,11,28,10,52,6.80
2014,11,28,10,53,6.80
2014,11,28,10,54,6.80
2014,11,28,10,55,6.80
2014,11,28,10,56,6.80
2014,11,28,10,57,6.80
2014,11,28,10,58,6.80
2014,11,28,10,59,6.80
2014,11,28,11,00,6.80
2014,11,28,11,01,6.80
2014,11,28,11,02,6.80
2014,11,28,11,03,6.80
2014,11,28,11,04,6.80
2014,11,28,11,05,6.80
2014,11,28,11,06,6.80
2014,11,28,11,07,6.80
2014,11,28,11,08,6.80
2014,11,28,11,09,6.80
2014,11,28,11,10,6.80
2014,11,28,11,11,6.80
2014,11,28,11,12,6.80
2014,11,28,11,13,6.80
2014,11,28,11,14,6.80
2014,11,28,11,15,6.80
2014,11,28,11,16,6.80
2014,11,28,11,17,6.80
2014,11,28,11,18,6.80
2014,11,28,11,19,6.80
2014,11,28,11,20,6.80
2014,11,28,11,21,6.80
2014,11,28,11,22,6.80
2014,11,28,11,23,6.80
2014,11,28,11,24,6.80
2014,11,28,11,25,6.80
2014,11,28,11,26,6.80
2014,11,28,11,27,6.80
2014,11,28,11,28,6.80
2014,11,28,11,29,6.80
2014,11,28,11,30,6.80
2014,11,28,11,31,6.80
2014,11,28,11,32,6.80
2014,11,28,11,33,6.80
2014,11,28,11,34,6.80
2014,11,28,11,35,6.80
2014,11,28,11,36,6.80
2014,11,28,11,37,6.80
2014,11,28,11,38,6.80
2014,11,28,11,39,6.80
2014,11,28,11,40,6.80
2014,11,28,11,41,6.80
2014,11,28,11,42,6.80
2014,11,28,11,43,6.80
2014,11,28,11,44,6.80
2014,11,28,11,45,6.80
2014,11,28,11,46,6.80
2014,11,28,11,47,6.80
2014,11,28,11,48,6.80
2014,11,28,11,49,6.80
2014,11,28,11,50,6.80
2014,11,28,11,51,6.90
2014,11,28,11,52,6.90
2014,11,28,11,53,6.90
2014,11,28,11,54,6.90
2014,11,28,11,55,6.90
2014,11,28,11,56,6.90
2014,11,28,11,57,6.90
2014,11,28,11,58,6.90
2014,11,28,11,59,6.90
2014,11,28,12,00,6.90
2014,11,28,12,01,6.90
2014,11,28,12,02,6.90
2014,11,28,12,03,6.90
2014,11,28,12,04,6.90
2014,11,28,12,05,6.90
2014,11,28,12,06,6.90
2014,11,28,12,07,7.00
2014,11,28,12,08,6.90
2014,11,28,12,09,7.00
2014,11,28,12,10,7.00
2014,11,28,12,11,7.00
2014,11,28,12,12,7.00
2014,11,28,12,13,7.00
2014,11,28,12,14,7.00
2014,11,28,12,15,7.10
2014,11,28,12,16,7.10
2014,11,28,12,17,7.10
2014,11,28,12,18,7.10
2014,11,28,12,19,7.10
2014,11,28,12,20,7.10
2014,11,28,12,21,7.20
2014,11,28,12,22,7.20
2014,11,28,12,23,7.20
2014,11,28,12,24,7.20
2014,11,28,12,25,7.20
2014,11,28,12,26,7.20
2014,11,28,12,27,7.20
2014,11,28,12,28,7.20
2014,11,28,12,29,7.20
2014,11,28,12,30,7.20
2014,11,28,12,31,7.20
2014,11,28,12,32,7.20
2014,11,28,12,33,7.20
2014,11,28,12,34,7.20
2014,11,28,12,35,7.20
2014,11,28,12,36,7.20
2014,11,28,12,37,7.20
2014,11,28,12,38,7.20
2014,11,28,12,39,7.20
2014,11,28,12,40,7.20
2014,11,28,12,41,7.20
2014,11,28,12,42,7.20
2014,11,28,12,43,7.20
2014,11,28,12,44,7.10
2014,11,28,12,45,7.10
2014,11,28,12,46,7.10
2014,11,28,12,47,7.10
2014,11,28,12,48,7.10
2014,11,28,12,49,7.20
2014,11,28,12,50,7.20
2014,11,28,12,51,7.20
2014,11,28,12,52,7.20
2014,11,28,12,53,7.20
2014,11,28,12,54,7.20
2014,11,28,12,55,7.20
2014,11,28,12,56,7.20
2014,11,28,12,57,7.20
2014,11,28,12,58,7.20
2014,11,28,12,59,7.20
2014,11,28,13,00,7.30
2014,11,28,13,01,7.30
2014,11,28,13,02,7.30
2014,11,28,13,03,7.30
2014,11,28,13,04,7.30
2014,11,28,13,05,7.30
2014,11,28,13,06,7.30
2014,11,28,13,07,7.30
2014,11,28,13,08,7.30
2014,11,28,13,09,7.30
2014,11,28,13,10,7.30
2014,11,28,13,11,7.30
2014,11,28,13,12,7.30
2014,11,28,13,13,7.30
2014,11,28,13,14,7.30
2014,11,28,13,15,7.30
2014,11,28,13,16,7.30
2014,11,28,13,17,7.30
2014,11,28,13,18,7.30
2014,11,28,13,19,7.30
2014,11,28,13,20,7.30
2014,11,28,13,21,7.30
2014,11,28,13,22,7.30
2014,11,28,13,23,7.30
2014,11,28,13,24,7.30
2014,11,28,13,25,7.30
2014,11,28,13,26,7.30
2014,11,28,13,27,7.30
2014,11,28,13,28,7.30
2014,11,28,13,29,7.30
2014,11,28,13,30,7.40
2014,11,28,13,31,7.40
2014,11,28,13,32,7.40
2014,11,28,13,33,7.40
2014,11,28,13,34,7.40
2014,11,28,13,35,7.40
2014,11,28,13,36,7.40
2014,11,28,13,37,7.40
2014,11,28,13,38,7.40
2014,11,28,13,39,7.40
2014,11,28,13,40,7.40
2014,11,28,13,41,7.40
2014,11,28,13,42,7.50
2014,11,28,13,43,7.50
2014,11,28,13,44,7.50
2014,11,28,13,45,7.50
2014,11,28,13,46,7.50
2014,11,28,13,47,7.50
2014,11,28,13,48,7.50
2014,11,28,13,49,7.50
2014,11,28,13,50,7.50
2014,11,28,13,51,7.50
2014,11,28,13,52,7.50
2014,11,28,13,53,7.50
2014,11,28,13,54,7.50
2014,11,28,13,55,7.50
2014,11,28,13,56,7.50
2014,11,28,13,57,7.50
2014,11,28,13,58,7.50
2014,11,28,13,59,7.50
2014,11,28,14,00,7.50
2014,11,28,14,01,7.50
2014,11,28,14,02,7.50
2014,11,28,14,03,7.50
2014,11,28,14,04,7.40
2014,11,28,14,05,7.40
2014,11,28,14,06,7.40
2014,11,28,14,07,7.40
2014,11,28,14,08,7.40
2014,11,28,14,09,7.40
2014,11,28,14,10,7.40
2014,11,28,14,11,7.40
2014,11,28,14,12,7.40
2014,11,28,14,13,7.40
2014,11,28,14,14,7.40
2014,11,28,14,15,7.40
2014,11,28,14,16,7.40
2014,11,28,14,17,7.30
2014,11,28,14,18,7.30
2014,11,28,14,19,7.30
2014,11,28,14,20,7.30
2014,11,28,14,21,7.30
2014,11,28,14,22,7.30
2014,11,28,14,23,7.30
2014,11,28,14,24,7.30
2014,11,28,14,25,7.30
2014,11,28,14,26,7.30
2014,11,28,14,27,7.40
2014,11,28,14,28,7.40
2014,11,28,14,29,7.40
2014,11,28,14,30,7.40
2014,11,28,14,31,7.40
2014,11,28,14,32,7.40
2014,11,28,14,33,7.40
2014,11,28,14,34,7.40
2014,11,28,14,35,7.40
2014,11,28,14,36,7.40
2014,11,28,14,37,7.40
2014,11,28,14,38,7.40
2014,11,28,14,39,7.40
2014,11,28,14,40,7.40
2014,11,28,14,41,7.40
2014,11,28,14,42,7.40
2014,11,28,14,43,7.40
2014,11,28,14,44,7.40
2014,11,28,14,45,7.40
2014,11,28,14,46,7.40
2014,11,28,14,47,7.40
2014,11,28,14,48,7.40
2014,11,28,14,49,7.40
2014,11,28,14,50,7.40
2014,11,28,14,51,7.40
2014,11,28,14,52,7.40
2014,11,28,14,53,7.40
2014,11,28,14,54,7.40
2014,11,28,14,55,7.40
2014,11,28,14,56,7.30
2014,11,28,14,57,7.30
2014,11,28,14,58,7.20
2014,11,28,14,59,7.20
2014,11,28,15,00,7.10
2014,11,28,15,01,7.00
2014,11,28,15,02,7.00
2014,11,28,15,03,7.00
2014,11,28,15,04,6.90
2014,11,28,15,05,6.90
2014,11,28,15,06,6.90
2014,11,28,15,07,6.80
2014,11,28,15,08,6.80
2014,11,28,15,09,6.80
2014,11,28,15,10,6.80
2014,11,28,15,11,6.80
2014,11,28,15,12,6.80
2014,11,28,15,13,6.80
2014,11,28,15,14,6.80
2014,11,28,15,15,6.80
2014,11,28,15,16,6.80
2014,11,28,15,17,6.80
2014,11,28,15,18,6.80
2014,11,28,15,19,6.80
2014,11,28,15,20,6.80
2014,11,28,15,21,6.80
2014,11,28,15,22,6.80
2014,11,28,15,23,6.80
2014,11,28,15,24,6.80
2014,11,28,15,25,6.80
2014,11,28,15,26,6.80
2014,11,28,15,27,6.70
2014,11,28,15,28,6.70
2014,11,28,15,29,6.70
2014,11,28,15,30,6.80
2014,11,28,15,31,6.70
2014,11,28,15,32,6.80
2014,11,28,15,33,6.80
2014,11,28,15,34,6.80
2014,11,28,15,35,6.80
2014,11,28,15,36,6.80
2014,11,28,15,37,6.80
2014,11,28,15,38,6.80
2014,11,28,15,39,6.80
2014,11,28,15,40,6.80
2014,11,28,15,41,6.80
2014,11,28,15,42,6.80
2014,11,28,15,43,6.80
2014,11,28,15,44,6.80
2014,11,28,15,45,6.80
2014,11,28,15,46,6.80
2014,11,28,15,47,6.80
2014,11,28,15,48,6.80
2014,11,28,15,49,6.80
2014,11,28,15,50,6.80
2014,11,28,15,51,6.80
2014,11,28,15,52,6.80
2014,11,28,15,53,6.90
2014,11,28,15,54,6.90
2014,11,28,15,55,6.90
2014,11,28,15,56,6.90
2014,11,28,15,57,7.00
2014,11,28,15,58,7.00
2014,11,28,15,59,7.00
2014,11,28,16,00,7.00
2014,11,28,16,01,7.00
2014,11,28,16,02,7.00
2014,11,28,16,03,7.00
2014,11,28,16,04,7.00
2014,11,28,16,05,7.00
2014,11,28,16,06,7.00
2014,11,28,16,07,7.00
2014,11,28,16,08,6.90
2014,11,28,16,09,6.90
2014,11,28,16,10,6.90
2014,11,28,16,11,6.90
2014,11,28,16,12,6.90
2014,11,28,16,13,6.90
2014,11,28,16,14,6.90
2014,11,28,16,15,6.90
2014,11,28,16,16,6.80
2014,11,28,16,17,6.80
2014,11,28,16,18,6.80
2014,11,28,16,19,6.80
2014,11,28,16,20,6.80
2014,11,28,16,21,6.80
2014,11,28,16,22,6.70
2014,11,28,16,23,6.70
2014,11,28,16,24,6.70
2014,11,28,16,25,6.60
2014,11,28,16,26,6.50
2014,11,28,16,27,6.50
2014,11,28,16,28,6.40
2014,11,28,16,29,6.40
2014,11,28,16,30,6.30
2014,11,28,16,31,6.30
2014,11,28,16,32,6.20
2014,11,28,16,33,6.20
2014,11,28,16,34,6.20
2014,11,28,16,35,6.10
2014,11,28,16,36,6.10
2014,11,28,16,37,6.00
2014,11,28,16,38,6.00
2014,11,28,16,39,6.00
2014,11,28,16,40,5.90
2014,11,28,16,41,5.90
2014,11,28,16,42,5.90
2014,11,28,16,43,5.80
2014,11,28,16,44,5.80
2014,11,28,16,45,5.80
2014,11,28,16,46,5.80
2014,11,28,16,47,5.80
2014,11,28,16,48,5.80
2014,11,28,16,49,5.80
2014,11,28,16,50,5.80
2014,11,28,16,51,5.70
2014,11,28,16,52,5.70
2014,11,28,16,53,5.70
2014,11,28,16,54,5.70
2014,11,28,16,55,5.60
2014,11,28,16,56,5.60
2014,11,28,16,57,5.60
2014,11,28,16,58,5.60
2014,11,28,16,59,5.60
2014,11,28,17,00,5.60
2014,11,28,17,01,5.60
2014,11,28,17,02,5.60
2014,11,28,17,03,5.50
2014,11,28,17,04,5.60
2014,11,28,17,05,5.60
2014,11,28,17,06,5.60
2014,11,28,17,07,5.60
2014,11,28,17,08,5.50
2014,11,28,17,09,5.50
2014,11,28,17,10,5.50
2014,11,28,17,11,5.50
2014,11,28,17,12,5.50
2014,11,28,17,13,5.40
2014,11,28,17,14,5.40
2014,11,28,17,15,5.40
2014,11,28,17,16,5.40
2014,11,28,17,17,5.40
2014,11,28,17,18,5.40
2014,11,28,17,19,5.40
2014,11,28,17,20,5.40
2014,11,28,17,21,5.30
2014,11,28,17,22,5.30
2014,11,28,17,23,5.30
2014,11,28,17,24,5.30
2014,11,28,17,25,5.30
2014,11,28,17,26,5.30
2014,11,28,17,27,5.30
2014,11,28,17,28,5.30
2014,11,28,17,29,5.30
2014,11,28,17,30,5.30
2014,11,28,17,31,5.30
2014,11,28,17,32,5.30
2014,11,28,17,33,5.30
2014,11,28,17,34,5.30
2014,11,28,17,35,5.30
2014,11,28,17,36,5.30
2014,11,28,17,37,5.30
2014,11,28,17,38,5.30
2014,11,28,17,39,5.30
2014,11,28,17,40,5.30
2014,11,28,17,41,5.30
2014,11,28,17,42,5.30
2014,11,28,17,43,5.30
2014,11,28,17,44,5.30
2014,11,28,17,45,5.30
2014,11,28,17,46,5.30
2014,11,28,17,47,5.30
2014,11,28,17,48,5.40
2014,11,28,17,49,5.40
2014,11,28,17,50,5.50
2014,11,28,17,51,5.50
2014,11,28,17,52,5.50